Miami, FL

2:50 PM EST on December 05, 2019 (GMT -0500)
Miami International

Weather History for KMIA - October, 2019

Change the Weather History Date:

Wednesday, October 23, 2019

  Actual Average Record
Temperature  
Mean Temperature 84 °F 79 °F  
Max Temperature 90 °F 85 °F 91 °F (2006)
Min Temperature 78 °F 72 °F 57 °F (1923)
Degree Days  
Heating Degree Days 0 0  
Month to date heating degree days 0 0  
Since 1 July heating degree days 0 0  
Cooling Degree Days 19 14  
Month to date cooling degree days 425 357  
Year to date cooling degree days 4516 3969  
Growing Degree Days 34 (Base 50)    
Moisture  
Dew Point 72 °F    
Average Humidity 69    
Maximum Humidity 85    
Minimum Humidity 52    
Precipitation  
Precipitation 0.00 in 0.15 in 2.66 in (1969)
Month to date precipitation 3.63 5.17  
Year to date precipitation 58.80 55.43  
Snow  
Snow 0.00 in - - ()
Month to date snowfall 0.0  
Since 1 July snowfall 0.0  
Since 1 September snowfall 0.0  
Snow Depth 0.00 in    
Sea Level Pressure  
Sea Level Pressure 30.00 in    
Wind  
Wind Speed 7 mph (East)    
Max Wind Speed 15 mph    
Max Gust Speed 18 mph    
Visibility 10 miles    
Events      
T = Trace of Precipitation, MM = Missing Value Source: NWS Daily Summary

Daily Weather History Graph

Daily Weather History Graph

Search for Another Location

Airport or City:

Astronomy

Oct. 23, 2019 Rise Set
Actual Time 7:24 AM EDT 6:46 PM EDT
Civil Twilight 7:00 AM EDT 7:09 PM EDT
Nautical Twilight 6:33 AM EDT 7:36 PM EDT
Astronomical Twilight 6:06 AM EDT 8:03 PM EDT
Moon 2:23 AM EDT (10/23) 3:57 PM EDT (10/23)
Length of Visible Light 12h 09m
Length of Day
11h 22m
Waning Crescent, 27% of the Moon is Illuminated
Oct 23
Waning Crescent
Oct 27
New
Nov 4
First Quarter
Nov 12
Full
Nov 19
Last Quarter

Hourly Weather History & Observations

Time (EDT) Temp. Heat Index Dew Point Humidity Pressure Visibility Wind Dir Wind Speed Gust Speed Precip Events Conditions
12:53 AM 80.1 °F 84.2 °F 73.0 °F 79% 30.00 in 10.0 mi Calm Calm - 0.00 in   Clear
1:53 AM 80.1 °F 84.2 °F 73.0 °F 79% 29.99 in 10.0 mi Calm Calm - N/A   Clear
2:53 AM 80.1 °F 84.2 °F 73.0 °F 79% 29.97 in 10.0 mi Calm Calm - N/A   Partly Cloudy
4:53 AM 79.0 °F - 73.0 °F 82% 29.96 in 10.0 mi Calm Calm - N/A   Partly Cloudy
5:53 AM 78.1 °F - 73.9 °F 87% 29.98 in 10.0 mi Calm Calm - N/A   Partly Cloudy
6:53 AM 79.0 °F - 73.9 °F 84% 29.98 in 10.0 mi NNE 3.5 mph - N/A   Partly Cloudy
7:53 AM 80.1 °F 85.1 °F 75.0 °F 85% 29.99 in 10.0 mi Calm Calm - N/A   Scattered Clouds
8:53 AM 82.0 °F 88.6 °F 75.0 °F 79% 30.00 in 10.0 mi NE 4.6 mph - N/A   Scattered Clouds
9:53 AM 86.0 °F 93.8 °F 73.9 °F 67% 30.01 in 10.0 mi ESE 9.2 mph - N/A   Scattered Clouds
10:53 AM 87.1 °F 93.6 °F 72.0 °F 61% 30.02 in 10.0 mi ESE 5.8 mph - N/A   Mostly Cloudy
11:53 AM 89.1 °F 97.0 °F 73.0 °F 59% 30.02 in 10.0 mi East 9.2 mph - N/A   Mostly Cloudy
12:53 PM 88.0 °F 92.9 °F 70.0 °F 55% 30.01 in 10.0 mi East 8.1 mph - N/A   Scattered Clouds
1:53 PM 89.1 °F 94.1 °F 70.0 °F 53% 29.99 in 10.0 mi SE 10.4 mph - N/A   Scattered Clouds
2:53 PM 89.1 °F 94.1 °F 70.0 °F 53% 29.98 in 10.0 mi ESE 13.8 mph - N/A   Partly Cloudy
3:53 PM 89.1 °F 93.7 °F 69.1 °F 52% 29.98 in 10.0 mi ENE 5.8 mph - N/A   Scattered Clouds
4:53 PM 88.0 °F 92.9 °F 70.0 °F 55% 29.98 in 10.0 mi ESE 10.4 mph - N/A   Scattered Clouds
5:53 PM 87.1 °F 92.0 °F 70.0 °F 57% 29.98 in 10.0 mi ESE 8.1 mph 17.3 mph N/A   Scattered Clouds
6:53 PM 84.9 °F 90.1 °F 71.1 °F 63% 29.99 in 10.0 mi East 9.2 mph - N/A   Mostly Cloudy
7:53 PM 84.0 °F 89.6 °F 72.0 °F 67% 30.01 in 10.0 mi East 9.2 mph - N/A   Mostly Cloudy
8:53 PM 84.0 °F 90.2 °F 73.0 °F 69% 30.03 in 10.0 mi East 10.4 mph - N/A   Scattered Clouds
9:53 PM 84.0 °F 89.6 °F 72.0 °F 67% 30.05 in 10.0 mi East 11.5 mph - N/A   Mostly Cloudy
10:53 PM 82.9 °F 87.5 °F 71.1 °F 67% 30.05 in 10.0 mi East 12.7 mph - N/A   Scattered Clouds
11:53 PM 82.9 °F 87.5 °F 71.1 °F 67% 30.06 in 10.0 mi East 10.4 mph - N/A   Scattered Clouds